Regional Weather Roundup
Issued by NWS

Home | Current Version | Previous Version | Text Only | Print | Product List | Glossary On
Versions: 1 2 3 4 5 6 7 8 9 10 11 12 13 14 15 16 17 18 19 20 21 22 23 24 25 26 27 28 29 30 31 32 33 34 35 36 37 38 39 40 41 42 43 44 45 46 47 48 49 50
000
ASUS43 KLSX 120110
RWRMO

WEATHER SUMMARY FOR MISSOURI
NATIONAL WEATHER SERVICE SPRINGFIELD MO
700 PM CST THU FEB 11 2016

NOTE: "FAIR" INDICATES FEW OR NO CLOUDS BELOW 12,000 FEET WITH NO
       SIGNIFICANT WEATHER AND/OR OBSTRUCTIONS TO VISIBILITY.
       CURRENT SKY AND/OR WEATHER CONDITIONS ARE NOT AVAILABLE FOR
       CHILLICOTHE AND FARMINGTON.

MOZ001>031-035>038-043-044-053-054-120200-
...NORTHERN AND WESTERN MISSOURI...

CITY           SKY/WX    TMP DP  RH WIND       PRES   REMARKS
KANSAS CTY INT CLOUDY    33  21  61 E5        30.19S WCI  29
KANSAS C DTWN  CLOUDY    36  21  54 SE9       30.18F WCI  29
LEE`S SUMMIT   CLOUDY    34  20  56 SE6       30.18F WCI  29
ST JOSEPH      CLOUDY    33  21  61 CALM      30.23R
CHILLICOTHE      N/A     29  16  58 E6        30.25R WCI  23
KIRKSVILLE     CLOUDY    24  11  57 E3        30.27S

$$
MOZ066>068-077>081-088>096-101>105-120200-
...SOUTHWEST MISSOURI...

CITY           SKY/WX    TMP DP  RH WIND       PRES   REMARKS
SPRINGFIELD    CLOUDY    43  19  38 NE7       30.15S
JOPLIN         PTCLDY    41  23  48 NE3       30.18R

$$
MOZ032>034-039>042-045>050-055>058-069>072-120200-
...CENTRAL MISSOURI...

CITY           SKY/WX    TMP DP  RH WIND       PRES   REMARKS
COLUMBIA       CLOUDY    30  19  63 E9        30.23R WCI  22
JEFFERSON CITY CLOUDY    33  19  56 E8        30.24F WCI  26
ROLLA          CLOUDY    32  21  64 NE7       30.21R WCI  26
SEDALIA        CLOUDY    34  20  56 E5        30.23R WCI  30
WHITEMAN AFB   MOCLDY    33  20  56 E1        30.20S
WARRENSBURG    MOCLDY    32  21  64 E6        30.20F WCI  26
OSAGE BEACH    CLOUDY    36  19  51 E6        30.22S

$$
MOZ051-052-059>065-120200-
...EAST CENTRAL MISSOURI...

CITY           SKY/WX    TMP DP  RH WIND       PRES   REMARKS
ST LOUIS INTL  CLOUDY    28   9  44 NE5       30.31R WCI  23
SPIRIT OF STL  CLOUDY    29  12  49 NE7       30.29R WCI  22
ST CHARLES     CLOUDY    26  11  52 E8        30.30S WCI  18

$$
MOZ072>076-082>087-097>100-106>115-120200-
...SOUTH CENTRAL AND SOUTHEAST MISSOURI...

CITY           SKY/WX    TMP DP  RH WIND       PRES   REMARKS
CAPE GIRARDEAU CLOUDY    33  20  58 NE10      30.30S WCI  25
FARMINGTON     CLOUDY    28  19  69 E8        30.24F WCI  20
POPLAR BLUFF   PTCLDY    35  22  58 NE7       30.27F WCI  29
WEST PLAINS    PTCLDY    41  18  39 SE6       30.18F

$$



USA.gov is the U.S. government's official web portal to all federal, state and local government web resources and services.